Regional Weather Roundup
Issued by NWS

Home | Current Version | Previous Version | Text Only | Print | Product List | Glossary On
Versions: 1 2 3 4 5 6 7 8 9 10 11 12 13 14 15 16 17 18 19 20 21 22 23 24 25 26 27
000
ASUS44 KBMX 251610
RWRAL

ALABAMA REGIONAL WEATHER ROUNDUP
NATIONAL WEATHER SERVICE BIRMINGHAM AL
1100 AM CDT MON SEP 25 2017

NOTE: "FAIR" INDICATES FEW OR NO CLOUDS BELOW 12,000 FEET
WITH NO SIGNIFICANT WEATHER AND/OR OBSTRUCTIONS TO VISIBILITY.

THE REMARK "TC" DENOTES TEMPERATURE IN DEGREES CELSIUS.

ALZ001>011-014-016>018-020-251700-
NORTH ALABAMA

CITY           SKY/WX    TMP DP  RH WIND       PRES   REMARKS
MUSCLE SHOALS  SUNNY     84  65  52 S6        30.05F
HUNTSVILLE     MOSUNNY   82  69  64 CALM      30.05S
DECATUR        MOSUNNY   82  68  62 SE5       30.05F
HALEYVILLE     FAIR      82  67  60 VRB3      30.07F
GADSDEN        MOSUNNY   81  70  69 E9        30.05F
$$

ALZ012-013-022-023-030>036-040>044-251700-
WEST CENTRAL ALABAMA

CITY           SKY/WX    TMP DP  RH WIND       PRES   REMARKS
TUSCALOOSA     CLOUDY    82  69  64 E3        30.02S
DEMOPOLIS        N/A     81  67  64 NE3       29.99F
$$

ALZ015-024>026-033>036-041>044-251700-
CENTRAL ALABAMA

CITY           SKY/WX    TMP DP  RH WIND       PRES   REMARKS
BIRMINGHAM     CLOUDY    82  66  58 E6        30.06S
MONTGOMERY     MOSUNNY   86  65  49 E6        30.00S
SHELBY CO ARPT CLOUDY    81  70  69 CALM      30.03S
MAXWELL AFB    SUNNY     84  67  56 E6        29.99F
GREENVILLE     FAIR      82  67  60 E3        29.99F
SELMA          FAIR      81  68  65 SE3       30.00S
PRATTVILLE     FAIR      82  67  61 E7        30.00S
BESSEMER       FAIR      80  68  66 NE5       30.05S
TALLADEGA      FAIR     N/A N/A N/A MISG      30.04F
PELL CITY      SUNNY     81  70  69 N5        30.04F
MARION         PTSUNNY   78  69  73 S6        30.00S
SYLACAUGA      FAIR      82  70  67 CALM      30.04S
$$

ALZ019-021-028-029-037-038-045>048-251700-
EAST CENTRAL ALABAMA

CITY           SKY/WX    TMP DP  RH WIND       PRES   REMARKS
ANNISTON       MOSUNNY   81  67  62 E5        30.04F
ALEXANDER CITY SUNNY     81  67  63 E7        30.03S
AUBURN         NOT AVBL
$$

ALZ051>064-251700-
SOUTHWEST ALABAMA

CITY           SKY/WX    TMP DP  RH WIND       PRES   REMARKS
MOBILE         PTSUNNY   79  70  74 E14       29.96F
BROOKLEY FIELD CLOUDY    79  73  82 NE10      29.96F
EVERGREEN      CLOUDY    77  72  84 NE5       29.99S
$$

ALZ049-050-065>069-251700-
SOUTHEAST ALABAMA

CITY           SKY/WX    TMP DP  RH WIND       PRES   REMARKS
DOTHAN         PTSUNNY   82  70  66 SE6       30.02S
OZARK          CLOUDY    82  69  65 E3        29.98F
TROY           PTSUNNY   84  69  60 SE8       30.00F
EUFAULA        NOT AVBL
$$




USA.gov is the U.S. government's official web portal to all federal, state and local government web resources and services.